Location: Nairn
(57.5833°N, 3.8667°W)
Time: 03:01:55
(UTC+00:00)

ADEOS II - Pass Details

Date: 07 August 2020
Orbit: 799 x 802 km, 98.5° (Epoch: 25 September)

Event Time Altitude Azimuth Distance (km) Brightness Sun altitude
Rises 02:15:20 0° 19° (NNE) 3,327 7.2 -12.4°
Reaches altitude 10° 02:17:48 10° 26° (NNE) 2,392 6.1 -12.3°
Maximum altitude 02:22:51 44° 98° (E) 1,105 3.0 -11.9°
Drops below altitude 10° 02:27:51 10° 170° (S) 2,374 4.1 -11.6°
Enters shadow 02:28:21 - 172° (S) 2,561 4.3 -11.6°
